Amateur Radio Satellites - All Passes

Search period start: 23 May 2013 17:00
Search period end: 24 May 2013 17:00
Location: Unspecified, 0.0000°N, 0.0000°E

Satellite Date Start Highest point End Downlink Frequencies (MHz)
Time Altitude Azimuth
Saudisat 1A 23 May 17:00:19 17:04:25 39° 68° (ENE) 17:08:27 436.775 MHz
TMSAT-1 23 May 17:01:08 17:05:48 32° 78° (ENE) 17:10:26 436.925 FM
Gurwin Techsat 1B 23 May 17:22:36 17:27:55 82° 258° (WSW) 17:33:13 435.225 FM
Uosat F 23 May 17:37:50 17:42:28 38° 257° (WSW) 17:47:05 435.120 FM
AO-7 23 May 18:04:23 18:12:12 46° 74° (ENE) 18:19:58 29.400 - 29.500 MHz
Sapphire 23 May 18:06:47 18:08:10 11° 70° (ENE) 18:09:32 437.095 MHz 1200 baud AX-25 AFSK
RS-15 23 May 18:32:19 18:39:28 18° 292° (WNW) 18:46:36 29.354 - 29.394 USB, Beacon 29.352 USB
TMSAT-1 23 May 18:42:18 18:45:27 16° 257° (WSW) 18:48:36 436.925 FM
PCSat 23 May 19:12:59 19:18:23 78° 71° (ENE) 19:23:47 145.825 MHz
PANSAT 23 May 19:15:23 19:18:41 26° 30° (NNE) 19:21:59 not established
STRAND 1 23 May 19:26:41 19:31:08 30° 103° (ESE) 19:35:36 ?
Sapphire 23 May 19:46:11 19:51:21 47° 251° (WSW) 19:56:31 437.095 MHz 1200 baud AX-25 AFSK
AO-7 23 May 19:58:29 20:04:36 23° 253° (WSW) 20:10:45 29.400 - 29.500 MHz
SO-50 23 May 20:15:58 20:20:24 72° 68° (ENE) 20:24:51 436.795 FM
Hamsat 23 May 20:22:19 20:26:17 41° 79° (ENE) 20:30:13 145.90 MHz
SO-67 23 May 20:38:45 20:40:41 14° 79° (E) 20:42:36 435.3500 MHz FM
JAS-1B 23 May 20:54:10 21:03:45 55° 77° (ENE) 21:12:37 435.800 - 435.900 CW/SSB
PANSAT 23 May 20:55:19 20:58:59 40° 210° (SSW) 21:02:40 not established
STRAND 1 23 May 21:06:55 21:10:04 17° 283° (WNW) 21:13:14 ?
SO-67 23 May 22:11:55 22:13:53 14° 259° (WSW) 22:15:51 435.3500 MHz FM
AO-40 23 May 22:16:38 03:56:48 87° 357° (N) 10:28:38 Beacon 2401.320
KITSAT 1 23 May 22:32:25 22:40:18 60° 110° (ESE) 22:48:10 435.175 FM
JAS-1B 23 May 22:46:01 22:53:36 26° 254° (WSW) 23:00:56 435.800 - 435.900 CW/SSB
JAS-2 23 May 22:47:26 22:53:57 39° 76° (ENE) 23:00:56 435.800 - 435.900 CW/SSB, 435.910 FM
HO-68 23 May 22:59:53 23:07:01 71° 75° (ENE) 23:14:05 435.675 MHz FM
OPAL 23 May 23:06:57 23:10:12 17° 76° (ENE) 23:13:26 ?
UOSAT-12 23 May 23:12:45 23:17:20 81° 248° (WSW) 23:21:56 437.025 FM, 437.400 FM
Oscar 11 23 May 23:58:14 00:02:11 36° 258° (WSW) 00:06:08 145.825 FM, Beacon 2401.500 USB
MaSat-1 24 May 00:18:05 00:20:48 12° 108° (ESE) 00:23:31 437.345 MHz
KITSAT 1 24 May 00:30:52 00:35:25 16° 291° (WNW) 00:40:00 435.175 FM
ISS 24 May 00:32:05 00:34:54 26° 126° (SE) 00:37:42 145.800 FM
JAS-2 24 May 00:33:09 00:38:41 25° 258° (WSW) 00:44:36 435.800 - 435.900 CW/SSB, 435.910 FM
OPAL 24 May 00:44:15 00:48:48 31° 256° (WSW) 00:53:22 ?
HO-68 24 May 00:52:37 00:54:18 11° 254° (WSW) 00:55:59 435.675 MHz FM
Oscar 10/S400 24 May 01:07:23 01:30:31 56° 148° (SSE) 11:50:23 145.825 - 145.975 CW/USB, Beacon 145.810 USB
MaSat-1 24 May 01:55:22 02:02:57 79° 286° (WNW) 02:10:11 437.345 MHz
Uribyol 2 24 May 02:59:57 03:04:24 29° 103° (ESE) 03:08:50 436.500 FM
Oscar 19 24 May 03:00:57 03:05:34 35° 102° (ESE) 03:10:11 437.125 CW, 437.150 USB
Oscar 16 24 May 03:40:01 03:45:04 61° 282° (WNW) 03:50:08 437.025 USB, Beacon 2401.1428
AO-27 24 May 03:51:18 03:56:29 68° 283° (WNW) 04:01:41 436.795 MHz FM
ITAMSAT 1 24 May 03:57:45 04:02:52 58° 283° (WNW) 04:08:01 435.822 SSB
RS-15 24 May 03:58:08 04:08:50 64° 69° (ENE) 04:19:42 29.354 - 29.394 USB, Beacon 29.352 USB
Gurwin Techsat 1B 24 May 04:23:10 04:26:46 19° 103° (ESE) 04:30:22 435.225 FM
Uosat F 24 May 04:29:28 04:33:44 28° 103° (ESE) 04:38:02 435.120 FM
AO-Echo 24 May 04:34:45 04:39:39 79° 282° (WNW) 04:44:46 ?
Uribyol 2 24 May 04:40:13 04:43:37 18° 283° (WNW) 04:47:01 436.500 FM
Oscar 19 24 May 04:42:09 04:44:39 14° 283° (WNW) 04:47:09 437.125 CW, 437.150 USB
Saudisat 1A 24 May 05:06:46 05:11:10 65° 112° (ESE) 05:15:38 436.775 MHz
TMSAT-1 24 May 05:38:42 05:44:00 88° 282° (WNW) 05:49:20 436.925 FM
Gurwin Techsat 1B 24 May 06:02:00 06:06:28 28° 282° (WNW) 06:10:57 435.225 FM
PCSat 24 May 06:08:27 06:11:39 16° 110° (ESE) 06:14:51 145.825 MHz
Uosat F 24 May 06:09:09 06:12:17 17° 283° (WNW) 06:15:25 435.120 FM
RS-15 24 May 06:13:42 06:20:53 20° 247° (WSW) 06:28:15 29.354 - 29.394 USB, Beacon 29.352 USB
AO-7 24 May 06:30:13 06:38:33 75° 106° (ESE) 06:46:53 29.400 - 29.500 MHz
Sapphire 24 May 06:39:48 06:44:41 35° 109° (ESE) 06:49:33 437.095 MHz 1200 baud AX-25 AFSK
PANSAT 24 May 07:04:06 07:07:33 29° 150° (SSE) 07:10:58 not established
PCSat 24 May 07:50:01 07:54:49 33° 289° (WNW) 07:59:37 145.825 MHz
STRAND 1 24 May 07:59:01 08:04:07 77° 77° (ENE) 08:09:11 ?
Sapphire 24 May 08:24:54 08:27:51 15° 290° (WNW) 08:30:48 437.095 MHz 1200 baud AX-25 AFSK
AO-7 24 May 08:27:35 08:30:53 13° 287° (WNW) 08:34:12 29.400 - 29.500 MHz
SO-50 24 May 08:29:33 08:34:20 59° 292° (WNW) 08:39:04 436.795 FM
Hamsat 24 May 08:30:06 08:34:23 56° 101° (ESE) 08:38:42 145.90 MHz
PANSAT 24 May 08:44:12 08:47:51 37° 330° (NNW) 08:51:30 not established
JAS-1B 24 May 09:06:07 09:11:34 49° 104° (ESE) 09:17:30 435.800 - 435.900 CW/SSB
SO-67 24 May 09:58:54 10:01:43 22° 281° (W) 10:04:33 435.3500 MHz FM
JAS-2 24 May 10:24:48 10:27:51 15° 101° (E) 10:30:47 435.800 - 435.900 CW/SSB, 435.910 FM
Oscar 11 24 May 10:33:53 10:35:46 13° 102° (ESE) 10:37:39 145.825 FM, Beacon 2401.500 USB
KITSAT 1 24 May 10:40:14 10:48:20 77° 70° (ENE) 10:56:25 435.175 FM
HO-68 24 May 10:51:28 10:58:30 60° 105° (ESE) 11:05:33 435.675 MHz FM
UOSAT-12 24 May 11:23:34 11:27:51 44° 292° (WNW) 11:32:07 437.025 FM, 437.400 FM
OPAL 24 May 11:37:24 11:41:57 38° 104° (ESE) 11:46:31 ?
JAS-2 24 May 12:07:34 12:12:49 34° 284° (WNW) 12:17:39 435.800 - 435.900 CW/SSB, 435.910 FM
Oscar 11 24 May 12:08:03 12:11:43 27° 282° (WNW) 12:15:25 145.825 FM, Beacon 2401.500 USB
ISS 24 May 12:08:06 12:10:28 18° 54° (NE) 12:12:50 145.800 FM
KITSAT 1 24 May 12:41:05 12:43:31 12° 248° (WSW) 12:45:57 435.175 FM
HO-68 24 May 12:42:25 12:45:50 14° 285° (WNW) 12:49:16 435.675 MHz FM
OPAL 24 May 13:18:56 13:20:35 12° 285° (WNW) 13:22:15 ?
ISS 24 May 13:45:03 13:46:59 14° 234° (SW) 13:48:55 145.800 FM
MaSat-1 24 May 14:30:12 14:30:48 11° 250° (WSW) 14:31:25 437.345 MHz
Oscar 16 24 May 14:36:09 14:40:01 21° 77° (ENE) 14:43:52 437.025 USB, Beacon 2401.1428
AO-27 24 May 14:48:57 14:52:39 20° 77° (ENE) 14:56:21 436.795 MHz FM
ITAMSAT 1 24 May 14:54:53 14:58:54 23° 77° (ENE) 15:02:54 435.822 SSB
AO-Echo 24 May 15:28:32 15:31:05 14° 78° (ENE) 15:33:35 ?
Oscar 19 24 May 15:34:18 15:39:30 88° 258° (WSW) 15:44:42 437.125 CW, 437.150 USB
Uribyol 2 24 May 15:34:20 15:39:30 77° 77° (ENE) 15:44:39 436.500 FM
RS-15 24 May 15:39:25 15:51:21 57° 111° (ESE) 16:03:01 29.354 - 29.394 USB, Beacon 29.352 USB
Oscar 16 24 May 16:15:03 16:19:06 24° 257° (WSW) 16:23:10 437.025 USB, Beacon 2401.1428
AO-27 24 May 16:27:45 16:31:55 25° 257° (WSW) 16:36:04 436.795 MHz FM
ITAMSAT 1 24 May 16:34:17 16:38:08 22° 257° (WSW) 16:42:00 435.822 SSB
TMSAT-1 24 May 16:39:20 16:42:41 17° 77° (ENE) 16:46:00 436.925 FM

Developed and maintained by Chris Peat, Heavens-Above GmbH. Please read the updated FAQ before sending e-mail. Imprint. DLR
